Погода в Верхней Злобинке

Россия / Брянская область     52°53′53″N   33°20′30″E
темп.,
°C
ветер,
м/с
пор.,
м/с
влажн.,
%
обл.,
%
осадки,
мм/ч
давл.,
гПа
погр.,
м
22 апреля, чт
чт2200:00+5ю479190 0.0 1013207
03:00+6ю51185100 0.0 1013355
06:00+4ююз410945 0.0 1014218
09:00+9ююз587738 0.1 1014439
12:00+13ююз79615 0.5 10141153
15:00+15ююз7105513 1.5 10131795
18:00+13юз696736 1.1 10131011
21:00+9ю41283100 1.4 1014255
23 апреля, пт
пт2300:00+9ю5148893 0.4 1013493
03:00+8ю5119394 1.0 1013412
06:00+7ююз61393100 0.4 1012559
09:00+5з4892100 1.4 1015804
12:00+9зюз4658100 0.1 10151507
15:00+10зюз5648100 0.1 10141904
18:00+7юз3562100 0.0 1014739
21:00+5юз3573100 0.0 1014122
24 апреля, сб
сб2400:00+3зюз37815 0.1 1013147
03:00+1з38875 0.1 1013168
06:00+1зюз38925 0.0 1012208
09:00+4з677265 0.0 1012997
12:00+5зюз5756100 0.3 10121609
15:00+3зсз9127991 1.2 10131143
18:00+5зсз712615 0.3 10141584
21:00+2зюз5127720 0.3 1015401
25 апреля, вс
вс2500:00+1зюз5128077 0.0 1015330
03:000зюз513855 0.0 1015390
06:00−1зюз5128799 0.0 1015342
09:00+4зюз7126092 0.1 10151662
12:00+6з8104390 0.0 10152109
15:00+7з7944100 0.1 10142321
18:00+6зсз69589 0.0 10151564
21:00+2зюз35722 0.0 101675
26 апреля, пн
пн2600:000зюз367621 0.0 101699
03:000юз377799 0.0 1015149
06:000юз367977 0.0 1015131
09:00+5зюз466588 0.1 1014776
12:00+7зюз5652100 0.6 10131505
15:00+7зюз5654100 2.1 10121661
18:00+6з3560100 0.8 10111307
21:00+2з367781 1.0 101299